Newport, Oregon, United States (97365)
Lat: 44.64N, Lon: 124.05W
Wx Zone: ORZ002
Local Info
Past Weather Observations for Today

NOTE: This archive is for the closest National Weather Service station to Newport. Information may differ from the station used for current weather conditions.

Click here for Long-term Archive

Time Weather Temperature Dewpoint Humidity Pressure Winds Precip Visibility
10:55
Clear
73°F / 23°C 46°F / 8°C 38% 30.01 in
(1016 mb)
E 10.4 mph
(E 17 kph)
- 10SM
10:35
Clear
72°F / 22°C 46°F / 8°C 41% 30.04 in
(1017 mb)
E 13.8 mph
(E 22 kph)
- 10SM
10:15
Clear
72°F / 22°C 46°F / 8°C 41% 30.04 in
(1017 mb)
E 13.8 mph
(E 22 kph)
- 10SM
09:55
Clear
70°F / 21°C 46°F / 8°C 43% 30.04 in
(1017 mb)
ENE 10.4 mph
(ENE 17 kph)
- 10SM
09:35
Clear
68°F / 20°C 48°F / 9°C 49% 30.06 in
(1018 mb)
ENE 6.9 mph
(ENE 11 kph)
- 7SM
09:15
Clear
68°F / 20°C 48°F / 9°C 49% 30.06 in
(1018 mb)
ENE 10.4 mph
(ENE 17 kph)
- 10SM
08:55
Clear
66°F / 19°C 48°F / 9°C 52% 30.06 in
(1018 mb)
E 6.9 mph
(E 11 kph)
- 10SM
08:35
Clear
63°F / 17°C 48°F / 9°C 59% 30.06 in
(1018 mb)
E 9.2 mph
(E 15 kph)
- 10SM
08:15
Clear
63°F / 17°C 46°F / 8°C 56% 30.09 in
(1019 mb)
E 15 mph
(E 24 kph)
- 10SM
07:55
Clear
61°F / 16°C 46°F / 8°C 59% N/A E 13.8 mph
(E 22 kph)
- 10SM
07:35
Clear
59°F / 15°C 46°F / 8°C 63% 30.09 in
(1019 mb)
E 9.2 mph
(E 15 kph)
- 10SM
07:15
Clear
55°F / 13°C 46°F / 8°C 72% 30.09 in
(1019 mb)
ENE 8.1 mph
(ENE 13 kph)
- 10SM
06:55
Clear
55°F / 13°C 46°F / 8°C 72% 30.09 in
(1019 mb)
NE 6.9 mph
(NE 11 kph)
- 10SM
06:35
Clear
52°F / 11°C 46°F / 8°C 82% 30.12 in
(1020 mb)
NE 8.1 mph
(NE 13 kph)
- 10SM
06:15
Clear
48°F / 9°C 45°F / 7°C 87% 30.12 in
(1020 mb)
Calm - 10SM
05:55
Clear
48°F / 9°C 45°F / 7°C 87% 30.12 in
(1020 mb)
ENE 4.6 mph
(ENE 7 kph)
- 10SM
05:35
Clear
46°F / 8°C 43°F / 6°C 87% 30.12 in
(1020 mb)
E 5.8 mph
(E 9 kph)
- 10SM
05:15
Clear
46°F / 8°C 45°F / 7°C 93% 30.12 in
(1020 mb)
E 8.1 mph
(E 13 kph)
- 10SM
04:55
Clear
46°F / 8°C 45°F / 7°C 93% 30.12 in
(1020 mb)
ENE 6.9 mph
(ENE 11 kph)
- 10SM
04:35
Clear
46°F / 8°C 45°F / 7°C 93% 30.12 in
(1020 mb)
E 9.2 mph
(E 15 kph)
- 10SM
04:15
Clear
46°F / 8°C 45°F / 7°C 93% N/A ENE 8.1 mph
(ENE 13 kph)
- 10SM
03:55
Clear
45°F / 7°C 45°F / 7°C 100% N/A ENE 4.6 mph
(ENE 7 kph)
- 10SM
03:35
Clear
45°F / 7°C 45°F / 7°C 100% 30.15 in
(1021 mb)
NE 4.6 mph
(NE 7 kph)
- 10SM
03:15
Clear
45°F / 7°C 45°F / 7°C 100% 30.15 in
(1021 mb)
NE 5.8 mph
(NE 9 kph)
- 10SM
02:55
Clear
46°F / 8°C 45°F / 7°C 93% 30.15 in
(1021 mb)
Calm - 10SM
02:35
Clear
45°F / 7°C 45°F / 7°C 100% 30.15 in
(1021 mb)
Calm - 7SM
02:15
Clear
46°F / 8°C 45°F / 7°C 93% 30.18 in
(1022 mb)
Calm - 7SM
01:55
Clear
46°F / 8°C 45°F / 7°C 93% 30.18 in
(1022 mb)
Calm - 7SM
01:35
Clear
45°F / 7°C 45°F / 7°C 100% 30.18 in
(1022 mb)
NE 3.5 mph
(NE 6 kph)
- 7SM
01:15
Clear
45°F / 7°C 43°F / 6°C 93% 30.18 in
(1022 mb)
E 3.5 mph
(E 6 kph)
- 10SM
00:55
Clear
45°F / 7°C 43°F / 6°C 93% 30.21 in
(1023 mb)
Calm - 10SM
00:35
Clear
46°F / 8°C 45°F / 7°C 93% 30.21 in
(1023 mb)
Calm - 10SM
00:15
Clear
48°F / 9°C 46°F / 8°C 94% 30.21 in
(1023 mb)
Calm - 10SM
Time Weather Temperature Dewpoint Humidity Pressure Winds Precip Visibility


Weather for websites

WeatherForYou.com, LLC is not responsible for any damages or problems caused by this service. Current weather conditions are obtained from the closest station including government and personal stations which may have varying degrees of accuracy. Weather forecasts are derived from the NOAA NDFD. Like all things, this site belongs to Jesus Christ... He just trusts us to maintain it. If you have any questions or comments email webmaster@weatherforyou.com

Copyright © 2016, WeatherForYou.com LLC. All rights reserved.